ATLAS 5 CENTAUR DEB, 44644

Orbit data source: Space-Track

ATLAS 5 CENTAUR DEB, 44644 is space debris in HEO originally from a launch on Wed, 17 Oct 2018 UTC launched from the Air Force Eastern Test Range (AFETR). Debris objects in space refer to the collection of defunct objects orbiting the Earth. Examples of debris include non-operational satellites, rocket bodies, and fragments generated from explosions, collisions, or faulty payload assembly.

Loading next visibility...
Identifier
44644, 2018-079E
Orbit
HEO
Country
Flag of USUS
Related business
Flag of USUnited Launch Alliance/Lockheed Martin (US)
Manufacturer
ULA Decatur
Mission
Spacecraft
Bus & Motor
Unknown
Mass
Unknown
Launch date (UTC)
2018-10-17 (7 years ago)
Launch vehicle
Unknown
Launch site
Air Force Eastern Test Range (AFETR)
Object type
Payload
Rocket body
Debris
Shape & HBR
Unknown shape, 1.1 m
Radar Cross Section
Medium (>0.1 m² and <1 m²)

Expand to show TLE details & history
Last TLE update: 1 week ago

TLE from 1 week ago
0 ATLAS 5 CENTAUR DEB
1 44644U 18079E   25340.12675314 -.00000092  00000-0  00000-0 0  9992
2 44644  12.8883  38.9222 4525447 322.0598  13.4481  1.94039341 47242
Epoch: 2025-12-06T03:02Z
TLE epoch observation values (Epoch: 2025-12-06T03:02:31.471Z)
Latitude
0.00001°
Longitude
-81.92086°
Altitude
9,555.226 km
Speed
5.946 km/s
True Right ascension
02h 35m 28s
True Declination
0° 00' 00"
Sunlit
Object was in daylight at epoch
Visualization orbit readout
Latitude
Unknown
Longitude
Unknown
Altitude
Unknown
Speed
Unknown
Apparent Right ascension
Unknown
Apparent Declination
Unknown
Sunlit
N/A
Visualization observer readout
Local Sidereal Time
00:05:20
Azimuth
Unknown
Elevation
Unknown
Doppler factor
Unknown
Orbital elements
Apogee altitude
33,065.075 km
Perigee altitude
8,487.771 km
Semi-major axis
27,154.56 km
Eccentricity
0.45254
Inclination
12.8883°
RAAN
38.9222°
Arg. of periapsis
322.0598°
True anomaly
38.18011°
Mean anomaly
13.4481°
Eccentric anomaly
23.99034°
Mean motion
0.48504 °/min
Orbital period
742.2 mins
BSTAR
0
Loading maneuver chart data...
Computing Atmospheric mass density...

Documentation

Showing up to 5 results
|